Weather in Ushmun

Russia / Zabaykalsky Krai     51°40′44″N   118°21′39″E
temp.,
°C
wind,
m/s
gust,
m/s
humid.,
%
clouds,
%
prec.,
mm/h
press.,
hPa
HPBL,
m
27 february, sat
sat2700:00−13ene1295100 0.1 101259
03:00−12ene1197100 0.8 100876
06:00−12n1197100 3.4 100787
09:00−14nw4992100 5.4 1008470
12:00−15wnw598897 0.1 1011646
15:00−12wnw6108598 0.3 10141183
18:00−14nw51084100 0.2 10191037
21:00−20w229379 0.2 102320
28 february, sun
sun2800:00−20wnw3138063 0.0 1027324
03:00−23wnw3128531 0.0 1030318
06:00−26w38850 0.0 1033161
09:00−27w24890 0.0 1035100
12:00−20w25820 0.0 1035536
15:00−18wnw46800 0.0 1034847
18:00−20wnw388267 0.0 1035587
21:00−26w229645 0.0 103820
1 march, mon
mon100:00−27w228817 0.0 104019
03:00−29w229123 0.0 104119
06:00−30w12860 0.0 104019
09:00−28ssw11909 0.0 104021
12:00−19sw258362 0.0 1037618
15:00−16w377981 0.1 10341277
18:00−18wnw248799 0.0 1032130
21:00−25wsw119169 0.0 103320
2 march, tue
tue200:00−24s1294100 0.0 103120
03:00−28sse119985 0.0 102919
06:00−29sse1110049 0.0 102819
09:00−26sse1210075 0.0 102667
12:00−20sse2494100 0.0 1022314
15:00−15sse2492100 0.1 1019492
18:00−17sse2594100 0.0 1017322
21:00−24sse2210095 0.1 101721
3 march, wed
wed300:00−27sse1210073 0.0 101620
03:00−25s129887 0.0 101421
06:00−24sw129796 0.0 101320
09:00−22wsw119985 0.0 101320
12:00−13w388592 0.1 1011864
15:00−12wnw488195 0.1 10091235
18:00−14nw239198 0.1 100999
21:00−19nw119499 0.1 101220